"Pseudo-MPEC" for P12gBd9

Created 2025 Oct 18 1:35:15 UT using Find_Orb

Click here for an explanation of pseudo-MPECs

 
 Astrometry: 
     P12gBd9* C2025 10 16.58453006 31 11.237+51 30 33.04   ~AGJK 21.60wXNEOCPF51
     P12gBd9  C2025 10 16.59726606 31 11.019+51 30 26.92   ~AGJK 21.85wXNEOCPF51
     P12gBd9  C2025 10 16.60996306 31 10.797+51 30 20.70   ~AGJK 21.75wXNEOCPF51

Station data:
(F51) Pan-STARRS 1, Haleakala  (N20.707234 W156.255910)  US/Hawaii.
   Observers J. Herman, T. Lowe, P. Minguez, A. Schultz, I. Smith. Measurers
   K. Chambers, T. de Boer, J. Fairlamb, H. Gao, M. Huber, C.-C. Lin, E.
   Magnier, Y. Ramanjooloo, R. Wainscoat, R. Weryk. 1.8-m Ritchey-Chrétien +
   CCD.

Orbital elements:  P12gBd9
   Perihelion 2026 Feb 13.926819 +/- 109 TT = 22:14:37.1 (JD 2461085.426819)
Epoch 2025 Oct 17.0 TT = JDT 2460965.5   Earth MOID: 0.2118   Ve: 0.0214
M 278.045077403 +/- 70              (J2000 ecliptic)             AutoNEOCP
n   0.683374437 +/- 0.603           Peri.  301.562234 +/- 80
a   1.276527659 +/- 0.751           Node   241.517726 +/- 27
e   0.54512187 +/- 0.226            Incl.   69.440532 +/- 29
P   1.442/526.788d         H 19.30  G  0.15   U 12.4  SR
q 0.580664509 +/- 0.749    Q 1.972390809 +/- 40.1
From 3 observations 2025 Oct. 16 (36.6 min); mean residual 0".01
Residuals in arcseconds: 
251016 F51  .00   .01-    251016 F51  .01+  .02+    251016 F51  .00   .01-    

Ephemerides (geocentric):
Date (UTC) HH   RA             Dec           delta  r     elong  mag " sig PA
---- --------  ------------   ------------  ------ ------ -----  --- --------
2025 10 18 02  06 30 47.629   +51 17 36.30  .89490 1.5200 106.8 21.5 911'  47
2025 10 18 03  06 30 46.800   +51 17 13.95  .89408 1.5197 106.9 21.5 911'  47
2025 10 18 04  06 30 45.960   +51 16 51.55  .89325 1.5194 106.9 21.5 912'  47
2025 10 18 05  06 30 45.110   +51 16 29.10  .89243 1.5191 107.0 21.5 912'  47
2025 10 18 06  06 30 44.251   +51 16 06.60  .89160 1.5189 107.0 21.5 912'  47
2025 10 18 07  06 30 43.381   +51 15 44.05  .89078 1.5186 107.0 21.5 912'  47
2025 10 18 08  06 30 42.501   +51 15 21.45  .88995 1.5183 107.1 21.5 913'  47
2025 10 18 09  06 30 41.611   +51 14 58.80  .88912 1.5181 107.1 21.5 913'  47
2025 10 18 10  06 30 40.710   +51 14 36.10  .88830 1.5178 107.1 21.5 913'  47
2025 10 18 11  06 30 39.800   +51 14 13.34  .88747 1.5175 107.2 21.5 913'  47
2025 10 18 12  06 30 38.879   +51 13 50.54  .88665 1.5172 107.2 21.5 913'  47
2025 10 18 13  06 30 37.947   +51 13 27.68  .88582 1.5170 107.3 21.5 914'  47
2025 10 18 14  06 30 37.006   +51 13 04.77  .88499 1.5167 107.3 21.5 914'  47
2025 10 18 15  06 30 36.054   +51 12 41.81  .88417 1.5164 107.3 21.5 914'  47
2025 10 18 16  06 30 35.092   +51 12 18.80  .88334 1.5161 107.4 21.5 915'  47
2025 10 18 17  06 30 34.120   +51 11 55.73  .88252 1.5159 107.4 21.5 919'  47
2025 10 18 18  06 30 33.137   +51 11 32.61  .88169 1.5156 107.5 21.5 957'  45
2025 10 18 19  06 30 32.144   +51 11 09.44  .88087 1.5153 107.5 21.5  20d  40
2025 10 18 20  06 30 31.140   +51 10 46.22  .88004 1.5151 107.5 21.5  21d  44
2025 10 18 21  06 30 30.126   +51 10 22.94  .87921 1.5148 107.6 21.5  21d  45
2025 10 18 22  06 30 29.102   +51 09 59.61  .87839 1.5145 107.6 21.5  21d  46
2025 10 18 23  06 30 28.067   +51 09 36.23  .87756 1.5142 107.7 21.5  21d  46
2025 10 19 00  06 30 27.022   +51 09 12.79  .87674 1.5140 107.7 21.5  21d  47
2025 10 19 01  06 30 25.966   +51 08 49.30  .87591 1.5137 107.7 21.5  21d  47
2025 10 19 02  06 30 24.899   +51 08 25.76  .87508 1.5134 107.8 21.5  21d  47
2025 10 19 03  06 30 23.822   +51 08 02.16  .87426 1.5131 107.8 21.5  21d  47
2025 10 19 04  06 30 22.735   +51 07 38.51  .87343 1.5129 107.9 21.5  21d  47
2025 10 19 05  06 30 21.637   +51 07 14.80  .87261 1.5126 107.9 21.5  21d  47
2025 10 19 06  06 30 20.528   +51 06 51.04  .87178 1.5123 107.9 21.4  21d  47
2025 10 19 07  06 30 19.408   +51 06 27.22  .87095 1.5120 108.0 21.4  21d  47
2025 10 19 08  06 30 18.278   +51 06 03.35  .87013 1.5118 108.0 21.4  21d  47
2025 10 19 09  06 30 17.137   +51 05 39.42  .86930 1.5115 108.1 21.4  21d  47
2025 10 19 10  06 30 15.986   +51 05 15.44  .86848 1.5112 108.1 21.4  22d  47
2025 10 19 11  06 30 14.824   +51 04 51.40  .86765 1.5109 108.1 21.4  22d  46
2025 10 19 12  06 30 13.651   +51 04 27.30  .86682 1.5107 108.2 21.4  24d  41
2025 10 19 13  06 30 12.467   +51 04 03.15  .86600 1.5104 108.2 21.4  26d  44
2025 10 19 14  06 30 11.272   +51 03 38.94  .86517 1.5101 108.3 21.4  26d  45
2025 10 19 15  06 30 10.067   +51 03 14.68  .86435 1.5098 108.3 21.4  26d  46
2025 10 19 16  06 30 08.851   +51 02 50.36  .86352 1.5096 108.3 21.4  26d  46
2025 10 19 17  06 30 07.624   +51 02 25.98  .86269 1.5093 108.4 21.4  26d  47
2025 10 19 18  06 30 06.386   +51 02 01.54  .86187 1.5090 108.4 21.4  26d  47
2025 10 19 19  06 30 05.137   +51 01 37.05  .86104 1.5087 108.5 21.4  26d  47
2025 10 19 20  06 30 03.877   +51 01 12.50  .86022 1.5085 108.5 21.4  26d  47
2025 10 19 21  06 30 02.606   +51 00 47.89  .85939 1.5082 108.5 21.4  26d  47
2025 10 19 22  06 30 01.325   +51 00 23.23  .85856 1.5079 108.6 21.4  26d  47
2025 10 19 23  06 30 00.032   +50 59 58.50  .85774 1.5076 108.6 21.4  26d  47
2025 10 20 00  06 29 58.728   +50 59 33.72  .85691 1.5074 108.7 21.4  26d  47
2025 10 20 01  06 29 57.413   +50 59 08.87  .85609 1.5071 108.7 21.4  26d  47